Tracking 28790 objects as of 19-Apr-2024
HD Live streaming from Space Station
objects crossing your sky now

ARIANE 42P R/B

Track ARIANE 42P R/B now!
10-day predictions


NORAD ID: 25667
Int'l Code: 1999-016B
Perigee: 181.5 km
Apogee: 10,045.4 km
Inclination: 4.3 °
Period: 204.1 minutes
Semi major axis: 11484 km
RCS: 21.049 m2 (large)
Launch date: April 2, 1999
Source: France (FR)
Launch site: FRENCH GUIANA (FRGUI)

Note: This is a ROCKET BODY
Your satellite tracking list
Your tracking list is empty




NASA's NSSDC Master Catalog

Two Line Element Set (TLE):
1 25667U 99016B   24110.54041383  .00418602 -97868-6  23991-2 0  9999
2 25667   4.3102 166.9076 4294487  86.0708 320.4708  7.05406165321611
Source of the keplerian elements: AFSPC